Regional Weather Roundup
Issued by NWS

Home | Current Version | Previous Version | Text Only | Print | Product List | Glossary On
Versions: 1 2 3 4 5 6 7 8 9 10 11 12 13 14 15 16 17 18 19 20 21 22 23 24 25 26 27 28 29 30 31 32 33 34 35 36 37 38 39 40 41 42 43 44 45 46 47 48 49 50
000
ASUS45 KREV 292010
RWRNV
NEVADA REGIONAL WEATHER ROUNDUP
NATIONAL WEATHER SERVICE RENO NV
100 PM PDT WED JUL 29 2015

NOTE: "FAIR" INDICATES FEW OR NO CLOUDS BELOW 12,000 FEET WITH NO
SIGNIFICANT WEATHER AND/OR OBSTRUCTIONS TO VISIBILITY.

NVZ001-003-004-292100-
WESTERN NEVADA

CITY           SKY/WX    TMP DP  RH WIND       PRES   REMARKS
RENO           MOSUNNY   89  21   8 VRB3      30.20F
CARSON CITY    FAIR      86  18   8 NE9       30.23F
MINDEN         FAIR      84  27  12 E6        30.22F
SLIDE MTN        N/A     64  36  34 S6          N/A
PYRAMID LAKE     N/A     77 N/A N/A N7          N/A
FALLON         SUNNY     86  20   9 SW3       30.19F
LOVELOCK       SUNNY     87  19   8 N5        30.19F
HAWTHORNE      SUNNY     84  19   9 CALM      30.21F
$$

NVZ002-CAZ072-073-292100-
NORTHERN AND CENTRAL SIERRA

CITY           SKY/WX    TMP DP  RH WIND       PRES   REMARKS
S. LAKE TAHOE  SUNNY     81  31  16 VRB5      30.31S
TRUCKEE        SUNNY     84  32  15 SW7       30.29F
SQUAW VLY 8000   N/A     72  30  21 NE2         N/A
SUSANVILLE     SUNNY     84  21  10 E8        30.20F
BLUE CANYON    SUNNY     85  32  15 SW8       30.25S
MAMMOTH LAKES  FAIR      81  25  12 SE5G16    30.37F
BRIDGEPORT     FAIR      82  25  12 CALM      30.31F
$$

NVZ030-031-036-292100-
NORTHERN NEVADA

CITY           SKY/WX    TMP DP  RH WIND       PRES   REMARKS
ELKO           SUNNY     83  23  11 CALM      30.27F
WINNEMUCCA     SUNNY     86  21   9 VRB6      30.22F
WENDOVER       SUNNY     79  28  15 SE7       30.30F
$$

NVZ035-037-292100-
CENTRAL NEVADA

CITY           SKY/WX    TMP DP  RH WIND       PRES   REMARKS
ELY            SUNNY     85  24  11 VRB7      30.33F
EUREKA           N/A     83  22  10 VRB3      30.29F
$$

NVZ013-014-292100-
SOUTH CENTRAL NEVADA

CITY           SKY/WX    TMP DP  RH WIND       PRES   REMARKS
TONOPAH        SUNNY     88  19   8 SW8       30.26F
$$

NVZ017-020-022-292100-
SOUTHERN NEVADA

CITY           SKY/WX    TMP DP  RH WIND       PRES   REMARKS
LAS VEGAS      MOSUNNY  101  30   8 N8        29.98F
N. LAS VEGAS   SUNNY     98  33  10 CALM      30.01F
NELLIS AFB     SUNNY    100  35  10 SE5       29.98F
HENDERSON      SUNNY    100  41  13 VRB3      30.05F
MERCURY        SUNNY     99  26   7 S8        30.08F
$$


USA.gov is the U.S. government's official web portal to all federal, state and local government web resources and services.